This is the latest recevied weather packets stored in our database for station/object VK6JI-11. If no packets are shown the sender has not sent any weather packets the latest 1 day(s).
| Time | Temp. | Humidity | Pressure | Rain* | Wind** | Luminosity | Snow |
|---|---|---|---|---|---|---|---|
| 1778026942 | 13.33° C | 83% | 1028.2 hPa | 0 mm | - | 63 W/m² | - |
| 1778026701 | 12.78° C | 83% | 1028.2 hPa | 0 mm | - | 25 W/m² | - |
| 1778026462 | 12.78° C | 83% | 1028.1 hPa | 0 mm | - | 25 W/m² | - |
| 1778026340 | 12.78° C | 83% | 1028.1 hPa | 0 mm | - | 25 W/m² | - |
| 1778026099 | 12.78° C | 83% | 1028.1 hPa | 0 mm | - | 25 W/m² | - |
| 1778025979 | 12.78° C | 84% | 1028.1 hPa | 0 mm | - | 25 W/m² | - |
| 1778025738 | 12.22° C | 84% | 1028.1 hPa | 0 mm | - | 23 W/m² | - |
| 1778025005 | 12.22° C | 84% | 1028.1 hPa | 0 mm | - | 21 W/m² | - |
| 1778024405 | 12.22° C | 84% | 1028 hPa | 0 mm | - | 18 W/m² | - |
| 1778024285 | 12.22° C | 84% | 1028 hPa | 0 mm | - | 18 W/m² | - |
| 1778024164 | 12.22° C | 84% | 1027.9 hPa | 0 mm | - | 16 W/m² | - |
| 1778023925 | 12.22° C | 83% | 1027.9 hPa | 0 mm | - | 14 W/m² | - |
| 1778023685 | 12.22° C | 83% | 1027.8 hPa | 0 mm | - | 14 W/m² | - |
| 1778023565 | 12.22° C | 83% | 1027.7 hPa | 0 mm | - | 12 W/m² | - |
| 1778023444 | 12.22° C | 83% | 1027.7 hPa | 0 mm | - | 12 W/m² | - |
| 1778023205 | 12.22° C | 83% | 1027.6 hPa | 0 mm | - | 11 W/m² | - |
| 1778022962 | 12.22° C | 83% | 1027.5 hPa | 0 mm | - | 11 W/m² | - |
| 1778022480 | 12.22° C | 83% | 1027.5 hPa | 0 mm | - | 9 W/m² | - |
| 1778021998 | 12.22° C | 82% | 1027.3 hPa | 0 mm | - | 5 W/m² | - |
| 1778021155 | 12.22° C | 82% | 1027 hPa | 0 mm | - | 0 W/m² | - |
| 1778020913 | 12.22° C | 82% | 1027.1 hPa | 0 mm | - | 0 W/m² | - |
| 1778020791 | 12.22° C | 82% | 1027.1 hPa | 0 mm | - | 0 W/m² | - |
| 1778019587 | 12.78° C | 81% | 1027 hPa | 0 mm | - | 0 W/m² | - |
| 1778019346 | 12.78° C | 81% | 1026.9 hPa | 0 mm | - | 0 W/m² | - |
| 1778019225 | 12.78° C | 81% | 1027 hPa | 0 mm | - | 0 W/m² | - |
* Rain latest hour (hover to see other rain measurements)
** Current wind speed in m/s (hover to see current wind gust speed)